This is the latest recevied weather packets stored in our database for station/object AA4XD. If no packets are shown the sender has not sent any weather packets the latest 10 day(s).
| Time | Temp. | Humidity | Pressure | Rain* | Wind** | Luminosity | Snow |
|---|---|---|---|---|---|---|---|
| 1777866548 | 15.56° C | 78% | 1017.6 hPa | 0 mm | - | 0 W/m² | - |
| 1777847456 | 25.56° C | 33% | 1014.8 hPa | 0 mm | - | 66 W/m² | - |
| 1777846852 | 25.56° C | 34% | 1014.9 hPa | 0 mm | - | 96 W/m² | - |
| 1777846550 | 26.11° C | 32% | 1015.1 hPa | 0 mm | - | 71 W/m² | - |
| 1777844733 | 27.22° C | 32% | 1015.1 hPa | 0 mm | - | 110 W/m² | - |
| 1777844127 | 28.33° C | 31% | 1015.2 hPa | 0 mm | - | 419 W/m² | - |
| 1777841094 | 27.78° C | 34% | 1015.4 hPa | 0 mm | - | 627 W/m² | - |
| 1777839581 | 27.78° C | 36% | 1015.4 hPa | 0 mm | - | 722 W/m² | - |
| 1777839278 | 27.78° C | 33% | 1015.5 hPa | 0 mm | - | 739 W/m² | - |
| 1777838672 | 27.22° C | 36% | 1015.6 hPa | 0 mm | - | 769 W/m² | - |
| 1777835332 | 26.67° C | 37% | 1016.4 hPa | 0 mm | - | 609 W/m² | - |
| 1777832609 | 25.56° C | 38% | 1017.2 hPa | 0 mm | - | 672 W/m² | - |
| 1777832305 | 25.56° C | 38% | 1017.4 hPa | 0 mm | - | 1007 W/m² | - |
| 1777832002 | 26.11° C | 39% | 1017.4 hPa | 0 mm | - | 1042 W/m² | - |
| 1777831397 | 25.56° C | 38% | 1017.4 hPa | 0 mm | - | 1043 W/m² | - |
| 1777830185 | 25.56° C | 38% | 1017.5 hPa | 0 mm | - | 1030 W/m² | - |
| 1777829880 | 25° C | 39% | 1017.7 hPa | 0 mm | - | 1031 W/m² | - |
| 1777829273 | 24.44° C | 42% | 1017.9 hPa | 0 mm | - | 1032 W/m² | - |
| 1777827151 | 24.44° C | 43% | 1018.3 hPa | 0 mm | - | 1009 W/m² | - |
| 1777826241 | 24.44° C | 46% | 1018.4 hPa | 0 mm | - | 1002 W/m² | - |
| 1777825635 | 23.89° C | 44% | 1018.6 hPa | 0 mm | - | 991 W/m² | - |
| 1777824726 | 23.33° C | 53% | 1018.7 hPa | 0 mm | - | 968 W/m² | - |
| 1777824424 | 23.33° C | 53% | 1018.7 hPa | 0 mm | - | 956 W/m² | - |
| 1777823210 | 22.78° C | 60% | 1018.9 hPa | 0 mm | - | 919 W/m² | - |
| 1777822606 | 21.67° C | 61% | 1018.7 hPa | 0 mm | - | 896 W/m² | - |
* Rain latest hour (hover to see other rain measurements)
** Current wind speed in m/s (hover to see current wind gust speed)